Regional Weather Roundup
Issued by NWS

Home | Current Version | Previous Version | Graphics & Text | Print | Product List | Glossary On
Versions: 1 2 3 4 5 6 7 8 9 10 11 12 13 14 15 16 17 18 19 20 21 22 23 24 25 26 27 28 29 30 31 32 33 34 35 36 37 38 39 40 41 42 43 44 45 46 47 48 49 50
103
ASUS43 KMPX 210801
RWRMN
WEATHER ROUNDUP FOR MINNESOTA
NATIONAL WEATHER SERVICE TWIN CITIES/CHANHASSEN MN
300 AM CDT MON MAY 21 2018


NOTE: "FAIR" INDICATES FEW OR NO CLOUDS BELOW 12,000 FEET WITH NO
SIGNIFICANT WEATHER AND/OR OBSTRUCTIONS TO VISIBILITY. N/A MEANS
CURRENT SKY AND/OR WEATHER CONDITIONS ARE NOT AVAILABLE.

MNZ060>063-068>070-210900-
   Twin Cities Metro

CITY           SKY/WX    TMP DP  RH WIND       PRES   REMARKS
TWIN CITIES    CLOUDY    62  45  53 SE12      30.13F
ST PAUL        CLOUDY    59  46  62 SE6       30.14S
CRYSTAL        CLOUDY    61  41  47 SE8       30.12S
BLAINE         MOCLDY    55  46  71 CALM      30.14
LAKEVILLE      CLOUDY    57  46  67 SE6       30.13
EDEN PRAIRIE   CLOUDY    61  44  53 E9        30.12S
SOUTH ST PAUL  CLOUDY    61  44  53 SE5       30.13F
LAKE ELMO      CLOUDY    57  45  62 CALM      30.16
$$
MNZ001>005-007-008-013>017-022>024-027-028-210900-
   Northwest Minnesota

CITY           SKY/WX    TMP DP  RH WIND       PRES   REMARKS
BEMIDJI        FAIR      35  33  90 CALM      30.14
HALLOCK        FAIR      46  37  71 S7        30.10
ROSEAU         FAIR      48  39  71 S6        30.12
WARROAD        FAIR      48  37  66 S3        30.13
THIEF RVR FALL FAIR      52  35  52 S6        30.13S
CROOKSTON      FAIR      46  37  71 SE7       30.12
FOSSTON        FAIR      45  30  57 CALM      30.14
DETROIT LAKES  FAIR      50  43  76 CALM      30.14
MOORHEAD       FAIR      48  34  57 SE3       30.12
PARK RAPIDS    FAIR      42  34  73 CALM      30.14S
MAHNOMEN       FAIR      50  35  58 SE5       30.13S
$$
MNZ006-009>011-018-025>026-210900-
   North Central Minnesota

CITY           SKY/WX    TMP DP  RH WIND       PRES   REMARKS
BAUDETTE       FAIR      48  35  60 S5        30.13S
FLAG ISLAND    FAIR      52  39  62 SW6       30.10
INTL FALLS     FAIR      39  38  96 CALM      30.14R
WASKISH        FAIR      39  36  87 CALM      30.14
BIG FORK       FAIR      37  36  93 CALM      30.16
LONGVILLE      FAIR      37  37 100 CALM      30.15
GRAND RAPIDS   FAIR      40  34  79 CALM      30.17F
CRANE LAKE     FAIR      34  34 100 CALM      30.17
ORR            FAIR      45  34  65 CALM      30.14
COOK           FAIR      37  34  87 CALM      30.17S
WALKER         FAIR      39  36  89 CALM      30.15S
$$
MNZ012-019>021-037-210900-
   Northeast Minnesota

CITY           SKY/WX    TMP DP  RH WIND       PRES   REMARKS
DULUTH         FAIR      40  31  70 VRB5      30.16F
ELY            FAIR      37  36  93 CALM      30.18
HIBBING        FAIR      34  33  96 CALM      30.16S
DULUTH HARBOR  FAIR      46  45  93 CALM      30.18
TWO HARBORS    FAIR      37  30  75 CALM      30.15
SILVER BAY     FAIR      36  30  80 CALM      30.16
GRAND MARAIS     N/A     41  33  73 CALM      30.18R
G MARAIS ARPRT FAIR      36  30  80 CALM      30.19
$$
MNZ029>031-032-039>041-046>048-054>057-064-210900-
   West Central Minnesota

CITY           SKY/WX    TMP DP  RH WIND       PRES   REMARKS
FERGUS FALLS   FAIR      52  36  54 E6        30.08
WHEATON        CLOUDY    50  32  50 E5        30.12
MORRIS         CLOUDY    55  34  44 E6        30.10
ALEXANDRIA     FAIR      53  36  52 E5        30.13S
ELBOW LAKE     FAIR      54  37  51 SE7       30.11
WADENA         FAIR      43  36  75 CALM      30.13
GLENWOOD       FAIR      52  32  46 NE5       30.12
APPLETON       CLOUDY    59  36  41 E3        30.09
BENSON         LGT RAIN  57  34  41 SE5       30.12
ORTONVILLE     PTCLDY    57  36  44 E5        30.09
MADISON        CLOUDY    63  54  72 E3        30.09
WILLMAR        CLOUDY    57  39  51 E3        30.13F
$$
MNZ033>034-036-042>043-049>051-058-059-210900-
   Central Minnesota

CITY           SKY/WX    TMP DP  RH WIND       PRES   REMARKS
ST CLOUD       FAIR      49  33  54 CALM      30.13S
SAUK CENTRE    FAIR      45  37  74 CALM      30.12
PAYNESVILLE    CLOUDY    53  40  61 CALM      30.12
AITKIN         FAIR      36  32  87 CALM      30.14
PINE RIVER     FAIR      37  34  87 CALM      30.18
BRAINERD       FAIR      46  39  76 CALM      30.14F
STAPLES        FAIR      43  37  81 CALM      30.13
LONG PRAIRIE   FAIR      43  36  75 CALM      30.13
LITTLE FALLS     N/A    N/A N/A N/A CALM        N/A
LITCHFIELD     CLOUDY    61  45  55 E3        30.11
BUFFALO        CLOUDY    58  40  51 CALM      30.13S
MAPLE LAKE     CLOUDY    57  43  58 CALM      30.13F
HUTCHINSON     CLOUDY    60  45  57 NE5       30.12
$$
MNZ037-044-045-052-053-210900-
   East Central Minnesota

CITY           SKY/WX    TMP DP  RH WIND       PRES   REMARKS
PRINCETON      FAIR      45  37  76 CALM      30.14
MORA           FAIR      45  34  65 CALM      30.16F
CAMBRIDGE      FAIR      46  37  71 CALM      30.15
RUSH CITY      FAIR      42  36  79 CALM      30.15
MOOSE LAKE     FAIR      37  36  93 CALM      30.14
HINCKLEY       FAIR      39  36  87 CALM      30.15
CLOQUET        FAIR      37  30  75 CALM      30.16S
MCGREGOR       FAIR      37  32  81 CALM      30.16
$$
MNZ071>073-080-081-089-090-097-098-210900-
   Southwest Minnesota

CITY           SKY/WX    TMP DP  RH WIND       PRES   REMARKS
MONTEVIDEO     CLOUDY    59  39  47 SE5       30.10
GRANITE FALLS  LGT RAIN  60  55  85 CALM      30.10
CANBY          CLOUDY    61  52  72 SE5       30.09
MARSHALL       LGT RAIN  57  55  93 SE3       30.09S
REDWOOD FALLS  LGT RAIN  57  56  96 E6        30.09F
OLIVIA         LGT RAIN  59  52  77 CALM      30.09F
PIPESTONE      LGT RAIN  55  54  94 SE3       30.07
WINDOM         DRIZZLE   55  41  58 E3        30.08
WORTHINGTON    LGT RAIN  54  53  97 E7        30.08F FOG
JACKSON        RAIN      54  54 100 E8        30.09
TRACY          DRIZZLE   57  56  97 SE5       30.09
SLAYTON        CLOUDY    55  54  96 SE8       30.10
$$
MNZ065>067-074>077-082>085-091>093-210900-
   South Central Minnesota

CITY           SKY/WX    TMP DP  RH WIND       PRES   REMARKS
MANKATO        CLOUDY    58  53  84 SE10      30.11F
NEW ULM        LGT RAIN  57  54  88 SE3       30.10
ST JAMES       DRIZZLE   57  54  88 E6        30.10
FAIRMONT       CLOUDY    56  53  90 SE9       30.10S
GLENCOE        CLOUDY    61  48  61 E5        30.11
FARIBAULT      CLOUDY    57  52  82 CALM      30.13
OWATONNA       CLOUDY    57  52  82 SE8       30.12
WASECA         CLOUDY    54  52  94 SE9       30.12
ALBERT LEA     CLOUDY    55  50  82 SE10      30.12
$$
MNZ078>079-086>088-094>096-210900-
   Southeast Minnesota

CITY           SKY/WX    TMP DP  RH WIND       PRES   REMARKS
ROCHESTER      CLOUDY    55  52  89 E8        30.14S
RED WING       CLOUDY    61  45  55 SE7       30.13
STANTON        CLOUDY    59  50  71 SE6       30.12
DODGE CENTER   CLOUDY    55  50  82 SE7       30.13
WINONA         CLOUDY    55  50  82 SE3       30.13
AUSTIN         CLOUDY    55  52  88 SE6       30.12
PRESTON        CLOUDY    55  50  85 SE7       30.14
$$
ABBREVIATIONS USED IN REMARKS
   TC - TEMPERATURES IN CELSIUS
  WCI - WIND CHILL INDEX
   HX - HEAT INDEX
  VSB - VISIBILITY
$$




USA.gov is the U.S. government's official web portal to all federal, state and local government web resources and services.